Curtin, Western Australia

1:00 PM AWST on February 11, 2016 (GMT +0800)
Curtin

Weather History for YCIN - October, 2012

Change the Weather History Date:

Saturday, October 20, 2012

  Actual Average Record
Temperature  
Mean Temperature 86 °F -  
Max Temperature 103 °F - - ()
Min Temperature 69 °F - - ()
Cooling Degree Days 21    
Growing Degree Days 36 (Base 50)    
Moisture  
Dew Point 68 °F    
Average Humidity 60    
Maximum Humidity 94    
Minimum Humidity 22    
Precipitation  
Precipitation 0.00 in - - ()
Sea Level Pressure  
Sea Level Pressure 29.78 in    
Wind  
Wind Speed 6 mph ()    
Max Wind Speed 13 mph    
Max Gust Speed -    
T = Trace of Precipitation, MM = Missing Value Source: Averaged Metar Reports

Daily Weather History Graph

Daily Weather History Graph

Search for Another Location

Airport or City:

Trip Planner

Search our weather history database for the weather conditions in past years. The results will help you decide how hot, cold, wet, or windy it might be!

Date:

Astronomy

Oct. 20, 2012 Rise Set
Actual Time 5:12 AM AWST 5:46 PM AWST
Civil Twilight 4:50 AM AWST 6:08 PM AWST
Nautical Twilight 4:24 AM AWST 6:34 PM AWST
Astronomical Twilight 3:58 AM AWST 7:00 PM AWST
Moon 9:20 AM AWST (10/20) 10:44 PM AWST (10/20)
Length of Visible Light 13h 18m
Length of Day
12h 33m
Waxing Crescent, 28% of the Moon is Illuminated
Oct 20
Waxing Crescent
Oct 22
First Quarter
Oct 30
Full
Nov 7
Last Quarter
Nov 14
New

Hourly Weather History & Observations

Time (AWST) Temp. Heat Index Dew Point Humidity Pressure Visibility Wind Dir Wind Speed Gust Speed Precip Events Conditions
12:00 AM 73.4 °F - 68.0 °F 83% 29.77 in - WNW 4.6 mph - N/A   Unknown
1:00 AM 75.2 °F - 66.2 °F 73% 29.80 in - SW 8.1 mph - N/A   Unknown
2:00 AM 73.4 °F - 64.4 °F 73% 29.77 in - West 4.6 mph - N/A   Unknown
3:00 AM 70 °F - 64 °F 76% 29.77 in - North 4.6 mph - -  
3:00 AM 69.8 °F - 64.4 °F 83% 29.77 in - North 4.6 mph - N/A   Unknown
4:00 AM 69.8 °F - 66.2 °F 88% 29.77 in - North 4.6 mph - N/A   Unknown
5:00 AM 69.8 °F - 68.0 °F 94% 29.80 in - NNE 4.6 mph - N/A   Unknown
6:00 AM 71 °F - 70 °F 94% 29.81 in - NNE 4.6 mph - -  
6:00 AM 71.6 °F - 69.8 °F 94% 29.80 in - NNE 4.6 mph - N/A   Unknown
7:00 AM 78.8 °F - 71.6 °F 78% 29.83 in - North 5.8 mph - N/A   Unknown
8:00 AM 84.2 °F 88.4 °F 69.8 °F 62% 29.83 in - NW 5.8 mph - N/A   Unknown
9:00 AM 90 °F - 67 °F 38% 29.84 in - ENE 4.6 mph - -  
9:00 AM 91.4 °F 95.4 °F 68.0 °F 46% 29.83 in - ENE 4.6 mph - N/A   Unknown
10:00 AM 95.0 °F 98.5 °F 66.2 °F 39% 29.83 in - NE 9.2 mph - N/A   Unknown
11:00 AM 98.6 °F 104.1 °F 68.0 °F 37% 29.80 in - NE 8.1 mph - N/A   Unknown
12:00 PM 100 °F - 64 °F 22% 29.77 in - North 12.7 mph - -  
12:00 PM 100.4 °F 103.6 °F 64.4 °F 31% 29.77 in - North 12.7 mph - N/A   Unknown
1:00 PM 98.6 °F 101.0 °F 64.4 °F 32% 29.74 in - North 5.8 mph - N/A   Unknown
2:00 PM 100.4 °F 104.9 °F 66.2 °F 33% 29.71 in - North 9.2 mph - N/A   Unknown
3:00 PM 95 °F - 70 °F 34% 29.70 in - NW 12.7 mph - -  
3:00 PM 95.0 °F 101.3 °F 69.8 °F 44% 29.71 in - NW 12.7 mph - N/A   Unknown
4:00 PM 91.4 °F 98.4 °F 71.6 °F 52% 29.71 in - NW 10.4 mph - N/A   Unknown
5:00 PM 87.8 °F 93.8 °F 71.6 °F 58% 29.74 in - NW 10.4 mph - N/A   Unknown
6:00 PM 85 °F - 72 °F 57% 29.74 in - NNW 10.4 mph - -  
6:00 PM 86.0 °F 91.8 °F 71.6 °F 62% 29.74 in - NNW 10.4 mph - N/A   Unknown
7:00 PM 84.2 °F 89.6 °F 71.6 °F 66% 29.80 in - North 8.1 mph - N/A   Unknown
8:00 PM 82.4 °F 87.2 °F 71.6 °F 70% 29.83 in - NNE 12.7 mph - N/A   Unknown
9:00 PM 81 °F - 67 °F 55% 29.84 in - North 8.1 mph - -  
9:00 PM 80.6 °F 83.2 °F 68.0 °F 65% 29.83 in - North 8.1 mph - N/A   Unknown
10:00 PM 78.8 °F - 66.2 °F 65% 29.83 in - North 5.8 mph - N/A   Unknown
11:00 PM 78.8 °F - 68.0 °F 69% 29.80 in - NW 2.3 mph - N/A   Unknown